Upstream stations:
Downstream station:
SHEF ID: MARK1 COTTONWOOD R AT MARION, KS
STATION TYPE:
Regulating: Stage = 16.00, Flow = 4479
PRECIP STAGE RIV-FLOW BAT-LOAD
in ft cfs volt
Ccp-Rev Ccp-Rev Ccp-Rev Ccp-Rev
(US/Central)
09/06 00:00 0.00 5.49 32 12.65
09/06 01:00 0.00 5.43 28 12.60
09/06 02:00 0.00 5.39 26 12.60
09/06 03:00 0.00 5.35 24 12.60
09/06 04:00 0.00 5.33 23 12.54
09/06 05:00 0.00 5.30 21 12.54
09/06 06:00 0.00 5.27 20 12.54
09/06 07:00 0.00 5.24 19 12.48
09/06 08:00 0.00 5.22 18 12.48
09/06 09:00 0.00 5.20 17 13.18
09/06 10:00 0.00 5.17 16 13.48
09/06 11:00 0.00 5.15 16 13.83
09/06 12:00 0.00 5.13 15 13.65
09/06 13:00 0.00 5.11 14 13.94
09/06 14:00 0.00 5.09 13 14.00
09/06 15:00 0.00 5.07 12 13.88
09/06 16:00 0.00 5.05 11 13.83
09/06 17:00 0.00 5.03 10 13.65
09/06 18:00 0.00 5.02 10 13.48
09/06 19:00 0.00 5.00 9 12.95
09/06 20:00 0.00 4.98 8 12.71
09/06 21:00 0.00 4.97 8 12.71
09/06 22:00 0.00 4.96 7 12.65
09/06 23:00 0.00 4.94 7 12.65